This is the latest recevied weather packets stored in our database for station/object IZ5MJO-13. If no packets are shown the sender has not sent any weather packets the latest 10 day(s).
| Time | Temp. | Humidity | Pressure | Rain* | Wind** | Luminosity | Snow |
|---|---|---|---|---|---|---|---|
| 1787668488 | 31.67° C | 42% | 1002.6 hPa | - | - | - | - |
| 1787667587 | 31.11° C | 43% | 1002.7 hPa | - | - | - | - |
| 1787666686 | 31.67° C | 41% | 1002.6 hPa | - | - | - | - |
| 1787665785 | 32.22° C | 43% | 1002.6 hPa | - | - | - | - |
| 1787664885 | 32.22° C | 44% | 1002.5 hPa | - | - | - | - |
| 1787663985 | 31.11° C | 45% | 1002.6 hPa | - | - | - | - |
| 1787663084 | 31.67° C | 46% | 1002.6 hPa | - | - | - | - |
| 1787662184 | 30° C | 47% | 1002.6 hPa | - | - | - | - |
| 1787661284 | 29.44° C | 50% | 1002.7 hPa | - | - | - | - |
| 1787660384 | 28.33° C | 51% | 1002.7 hPa | - | - | - | - |
| 1787659484 | 27.22° C | 52% | 1002.6 hPa | - | - | - | - |
| 1787658592 | 27.22° C | 52% | 1002.7 hPa | - | - | - | - |
| 1787657692 | 27.22° C | 53% | 1002.7 hPa | - | - | - | - |
| 1787656791 | 28.33° C | 52% | 1002.4 hPa | - | - | - | - |
| 1787655891 | 27.78° C | 54% | 1002.4 hPa | - | - | - | - |
| 1787654990 | 26.67° C | 54% | 1002.2 hPa | - | - | - | - |
| 1787654090 | 26.67° C | 54% | 1002.3 hPa | - | - | - | - |
| 1787653190 | 26.11° C | 56% | 1002.2 hPa | - | - | - | - |
| 1787652289 | 25° C | 57% | 1002.1 hPa | - | - | - | - |
| 1787651389 | 25° C | 57% | 1002.1 hPa | - | - | - | - |
| 1787650489 | 23.89° C | 57% | 1002.1 hPa | - | - | - | - |
| 1787649588 | 23.89° C | 60% | 1001.8 hPa | - | - | - | - |
| 1787648688 | 23.33° C | 63% | 1001.7 hPa | - | - | - | - |
| 1787647788 | 22.78° C | 60% | 1001.6 hPa | - | - | - | - |
| 1787646887 | 21.67° C | 64% | 1001.7 hPa | - | - | - | - |
* Rain since midnight (hover to see other rain measurements)
** Current wind speed in m/s (hover to see current wind gust speed)